User: anonymous   Login
Location: Unspecified
(0.0000°N, 0.0000°E)
Time: 20:45:53
(UTC+00:00)
Language:

OrbView-2 - Orbit

View from above orbital plane
View from above orbital plane
View from above satellite
View from above satellite

Ground track
Ground track

The orbit is defined by the following mean orbital elements,

1 24883U          26150.45571338 +.00000000 +00000-0 +12443-3 0 00005
2 24883  98.8672 316.9850 0002529 153.6074 206.5240 14.35543119    08
Epoch (UTC): 30 May 2026 10:56:13
Eccentricity: 0.0002529
inclination: 98.8672°
perigee height: 771 km
apogee height: 775 km
right ascension of ascending node: 316.9850°
argument of perigee: 153.6074°
revolutions per day: 14.35543119
mean anomaly at epoch: 206.5240°

The dashed part of the orbit path shows where the satellite is in the earth's shadow,  

DLR